Weather History for KDPA - November, 2012

Change the Weather History Date:

Tuesday, November 6, 2012

  Actual Average Record
Temperature  
Mean Temperature 33 °F 45 °F  
Max Temperature 40 °F 54 °F 64 °F (1996)
Min Temperature 25 °F 36 °F 20 °F (2010)
Degree Days  
Heating Degree Days 32 20  
Month to date heating degree days 169 115  
Since 1 July heating degree days 796 626  
Cooling Degree Days 0 0  
Month to date cooling degree days 0 0  
Year to date cooling degree days 1093 814  
Moisture  
Dew Point 34 °F    
Average Humidity 91    
Maximum Humidity 100    
Minimum Humidity 73    
Precipitation  
Precipitation 0.08 in 0.12 in 1.40 in (2000)
Month to date precipitation 0.08 0.66  
Year to date precipitation 19.02 32.77  
Sea Level Pressure  
Sea Level Pressure 29.95 in    
Wind  
Wind Speed 5 mph (SSE)    
Max Wind Speed 13 mph    
Max Gust Speed 15 mph    
Visibility 4 miles    
Events Rain    
T = Trace of Precipitation, MM = Missing Value Source: NWS Daily Summary

Daily Weather History Graph

Daily Weather History Graph

Search for Another Location

Airport or City:

Trip Planner

Search our weather history database for the weather conditions in past years. The results will help you decide how hot, cold, wet, or windy it might be!

Date:

Astronomy

Nov. 06, 2012 Rise Set
Actual Time 6:32 AM CST 4:40 PM CST
Civil Twilight 6:02 AM CST 5:09 PM CST
Nautical Twilight 5:29 AM CST 5:43 PM CST
Astronomical Twilight 4:56 AM CST 6:15 PM CST
Moon 11:20 PM CST (11/6) 12:23 PM CST (11/6)
Length of Visible Light 11h 07m
Length of Day
10h 08m
Waning Gibbous, 53% of the Moon is Illuminated
Nov 6
Waning Gibbous
Nov 6
Last Quarter
Nov 13
New
Nov 20
First Quarter
Nov 28
Full

Hourly Weather History & Observations

Time (CST) Temp. Windchill Dew Point Humidity Pressure Visibility Wind Dir Wind Speed Gust Speed Precip Events Conditions
12:52 AM 30.0 °F - 26.1 °F 85% 30.11 in 10.0 mi Calm Calm - N/A   Mostly Cloudy
1:52 AM 27.0 °F - 24.1 °F 89% 30.11 in 9.0 mi Calm Calm - N/A   Mostly Cloudy
3:52 AM 30.0 °F - 26.1 °F 85% 30.07 in 9.0 mi Calm Calm - N/A   Overcast
4:52 AM 28.9 °F - 26.1 °F 89% 30.07 in 6.0 mi Calm Calm - N/A   Clear
5:52 AM 28.0 °F 24.2 °F 25.0 °F 88% 30.04 in 8.0 mi SSE 3.5 mph - N/A   Mostly Cloudy
6:52 AM 28.0 °F 24.2 °F 26.1 °F 92% 30.03 in 6.0 mi SSE 3.5 mph - N/A   Clear
7:52 AM 33.1 °F 30.0 °F 30.0 °F 89% 30.04 in 5.0 mi SSE 3.5 mph - N/A   Scattered Clouds
8:52 AM 35.1 °F 32.2 °F 30.9 °F 85% 30.02 in 5.0 mi SSE 3.5 mph - N/A   Overcast
9:52 AM 37.0 °F 31.0 °F 30.0 °F 76% 30.01 in 5.0 mi South 8.1 mph - N/A   Haze
10:52 AM 37.9 °F 32.1 °F 30.0 °F 73% 29.99 in 6.0 mi South 8.1 mph - N/A   Haze
11:52 AM 39.0 °F 34.0 °F 32.0 °F 76% 29.97 in 6.0 mi South 6.9 mph - 0.00 in Rain Light Rain
12:40 PM 37.4 °F 31.4 °F 33.8 °F 87% 29.94 in 4.0 mi South 8.1 mph - 0.00 in Rain Light Rain
12:52 PM 37.9 °F 33.5 °F 34.0 °F 86% 29.95 in 3.0 mi South 5.8 mph - 0.00 in Rain Light Rain
1:04 PM 37.4 °F 32.1 °F 35.6 °F 93% 29.93 in 4.0 mi SSW 6.9 mph - 0.00 in Rain Light Rain
1:14 PM 37.4 °F 31.4 °F 35.6 °F 93% 29.92 in 3.0 mi South 8.1 mph - 0.00 in Rain Light Rain
1:32 PM 37.4 °F 30.8 °F 35.6 °F 93% 29.91 in 3.0 mi South 9.2 mph - 0.00 in Rain Light Rain
1:52 PM 37.9 °F 32.1 °F 35.1 °F 89% 29.93 in 3.0 mi South 8.1 mph - 0.01 in Rain Light Rain
2:52 PM 37.9 °F 30.5 °F 35.1 °F 89% 29.91 in 4.0 mi South 11.5 mph - 0.00 in Rain Light Rain
3:34 PM 37.4 °F 31.4 °F 35.6 °F 93% 29.89 in 2.5 mi South 8.1 mph - 0.01 in Rain Light Rain
3:52 PM 37.0 °F 31.0 °F 35.1 °F 93% 29.91 in 2.5 mi South 8.1 mph - 0.01 in Rain Light Rain
3:59 PM 37.4 °F 30.8 °F 35.6 °F 93% 29.89 in 2.5 mi SSE 9.2 mph - 0.00 in Rain Light Rain
4:29 PM 37.4 °F 32.1 °F 35.6 °F 93% 29.89 in 2.5 mi South 6.9 mph - 0.00 in Rain Light Rain
4:45 PM 37.4 °F 32.8 °F 35.6 °F 93% 29.89 in 4.0 mi South 5.8 mph - 0.00 in   Overcast
4:52 PM 37.9 °F 33.5 °F 36.0 °F 93% 29.91 in 3.0 mi South 5.8 mph - 0.00 in Rain Light Rain
5:52 PM 37.9 °F 32.1 °F 36.0 °F 93% 29.92 in 4.0 mi South 8.1 mph - 0.00 in Rain Light Rain
6:42 PM 37.4 °F 32.8 °F 37.4 °F 100% 29.89 in 3.0 mi SSE 5.8 mph - 0.01 in Rain Light Rain
6:52 PM 37.9 °F 33.5 °F 37.0 °F 97% 29.92 in 3.0 mi SSE 5.8 mph - 0.01 in Rain Light Rain
7:05 PM 37.4 °F 31.4 °F 37.4 °F 100% 29.89 in 3.0 mi SSE 8.1 mph - 0.00 in Rain Light Rain
7:52 PM 37.9 °F 32.7 °F 37.0 °F 97% 29.91 in 2.5 mi SSE 6.9 mph - 0.02 in Rain Light Rain
8:01 PM 37.4 °F 32.1 °F 37.4 °F 100% 29.88 in 3.0 mi SSE 6.9 mph - 0.00 in Rain Light Rain
8:09 PM 37.4 °F 31.4 °F 37.4 °F 100% 29.88 in 2.5 mi SSE 8.1 mph - 0.00 in Rain Light Rain
8:52 PM 39.0 °F 34.0 °F 37.0 °F 93% 29.90 in 2.5 mi SSE 6.9 mph - 0.01 in Rain Light Rain
9:52 PM 39.0 °F 34.8 °F 37.9 °F 96% 29.90 in 2.5 mi SSE 5.8 mph - 0.01 in Rain Light Rain
10:52 PM 39.0 °F 35.7 °F 37.9 °F 96% 29.89 in 2.5 mi South 4.6 mph - 0.01 in Rain Light Rain
11:52 PM 39.0 °F 34.8 °F 37.9 °F 96% 29.89 in 2.5 mi SE 5.8 mph - 0.00 in Rain Light Rain